SCP
2 2 2 2 2 2 2 2 1 1 1 1 1 1 1 0 0 1 1 1 1 0 0 0 0 0 0 0 0 0 0 0 0 0 0 0 0 0 0 0 0 0 0
2 2 2 2 2 2 2 2 1 1 1 1 1 1 1 1 1 1 1 1 1 0 0 0 0 0 0 0 0 0 0 0 0 0 0 0 0 0 0 0 0 0 0
2 2 2 2 2 2 2 2 1 1 1 1 1 1 1 1 1 1 1 1 0 0 0 0 0 0 0 0 0 0 0 0 0 0 0 0 0 0 0 0 0 0 0
2 2 2 2 2 2 2 2 1 1 1 1 1 1 1 1 1 1 1 0 0 0 0 0 0 0 0 0 0 0 0 0 0 0 0 0 0 0 0 0 0 0 0
1 2 2 2 2 2 2 2 1 1 1 1 1 1 1 1 1 1 0 0 0 0 0 0 0 0 0 0 0 0 0 0 0 0 0 0 0 0 0 0 0 0 0
1 1 1 1 1 1 1 1 1 1 1 1 1 1 1 1 0 0 0 0 0 0 0 0 0 0 0 0 0 1 1 1 1 1 0 0 0 0 0 0 0 0 0
1 1 1 1 1 1 1 1 1 1 1 1 1 0 0 0 0 0 0 0 0 0 0 0 0 0 0 0 0 0 0 1 1 1 1 1 0 0 0 0 0 0 0
0 0 0 1 1 1 1 1 1 1 1 1 0 0 0 0 0 0 0 0 0 0 0 0 0 0 0 0 0 0 0 0 1 1 1 1 1 0 0 0 0 0 0
0 0 0 0 1 1 1 1 1 1 1 0 0 0 0 0 0 0 0 0 0 0 0 0 0 0 0 0 0 0 0 0 0 0 1 1 1 1 1 1 1 0 0
0 0 0 0 0 1 1 1 1 1 0 0 0 0 0 0 0 0 0 0 0 0 0 0 0 0 0 0 0 0 0 0 0 0 0 1 1 1 1 1 1 1 1
0 0 0 0 0 0 1 1 1 1 0 0 0 0 0 0 0 0 0 0 0 0 0 0 0 0 0 0 0 0 0 0 0 0 0 0 1 1 1 1 1 1 1
0 0 0 0 0 0 0 0 1 1 1 0 0 0 0 0 0 0 0 0 0 0 0 0 0 0 0 0 0 0 0 0 0 0 0 0 1 1 1 1 1 1 1
0 0 0 0 0 0 0 0 0 1 1 1 1 0 0 0 0 0 0 0 0 0 0 0 0 0 0 0 0 0 0 0 0 0 0 0 0 1 1 1 1 1 1
0 0 0 0 0 0 0 0 0 0 1 1 1 1 1 0 0 0 0 0 0 0 0 0 0 0 0 0 0 0 0 0 0 0 0 0 0 0 1 1 1 1 1
0 0 0 0 0 0 0 0 0 0 0 1 1 1 1 1 1 0 0 0 0 0 0 0 0 0 0 0 0 0 0 0 0 0 0 0 0 0 0 0 0 0 0
0 0 0 0 0 0 0 0 0 0 0 0 1 1 1 1 1 1 1 0 0 0 0 0 0 0 0 0 0 0 0 0 0 0 0 0 0 0 0 0 0 0 0
0 0 0 0 0 0 0 0 0 0 0 0 0 0 1 1 1 1 1 1 1 0 0 0 0 0 0 0 0 0 0 0 0 0 0 0 0 0 0 0 0 0 0
0 0 0 0 0 0 0 0 0 0 0 0 0 0 0 1 1 1 1 1 1 1 1 1 0 0 0 0 0 0 0 0 0 0 0 0 0 0 0 0 0 0 0
0 0 0 0 0 0 0 0 0 0 0 0 0 0 0 0 1 1 1 1 1 1 1 1 1 0 0 0 0 0 0 0 0 0 0 0 0 0 0 0 0 0 0
0 0 0 0 0 0 0 0 0 0 0 0 0 0 0 0 0 0 1 1 1 1 1 1 1 1 0 0 0 0 0 0 0 0 0 0 0 0 0 0 0 0 0
0 0 0 0 0 0 0 0 0 0 0 0 0 0 0 0 0 0 0 1 1 1 1 1 1 1 0 0 0 0 0 0 0 0 0 0 0 0 0 0 0 0 0
0 0 0 0 0 0 0 0 0 0 0 0 0 0 0 0 0 0 0 0 0 1 1 1 1 1 1 0 0 0 0 0 0 0 0 0 0 0 0 0 0 0 0
0 0 0 0 0 0 0 0 0 0 0 0 0 0 0 0 0 0 0 0 0 0 0 1 1 1 1 1 0 0 0 0 0 0 0 0 0 0 0 0 0 0 0
0 0 0 0 0 0 0 0 0 0 0 0 0 0 0 0 0 0 0 0 0 0 0 0 1 1 1 1 0 0 0 0 0 0 0 0 0 0 0 0 0 0 0
0 0 0 0 0 0 0 0 0 0 0 0 0 0 0 0 0 0 0 0 0 0 0 0 0 0 0 0 0 0 0 0 0 0 0 0 0 0 0 0 0 0 0
0 0 0 0 0 0 0 0 0 0 0 0 0 0 0 0 0 0 0 0 0 0 0 0 0 0 0 0 0 0 0 0 0 0 0 0 0 0 0 0 0 0 0
Wind_Speed
10 10 8 8 9 9 9 9 10 11 11 12 11 12 13 13 11 10 6 11 13 14 15 15 15 16 15 16 17 18 19 19 19 19 18 18 17 17 17 16 15 14 13
10 10 10 9 10 10 9 9 11 10 10 9 12 13 13 13 12 12 10 10 14 14 14 14 15 15 15 16 16 18 18 18 19 20 20 19 18 18 18 17 16 15 14
12 11 10 10 10 10 10 9 11 9 10 11 13 13 11 12 12 12 12 9 10 14 15 14 14 14 15 16 16 17 17 18 19 20 20 20 19 19 18 18 18 17 16
13 11 10 10 10 9 8 8 8 8 9 9 9 9 9 9 13 12 11 10 9 9 13 16 15 14 15 16 16 16 17 17 18 20 20 20 20 20 19 18 18 18 17
11 10 8 8 8 7 8 8 7 8 8 8 9 9 9 9 10 11 12 13 12 11 10 12 15 14 16 17 17 17 17 17 18 19 19 20 20 20 19 19 18 18 18
9 8 6 7 7 7 7 7 7 7 7 7 9 8 8 9 8 9 11 11 10 12 13 11 10 13 17 16 16 17 17 18 18 19 19 19 20 19 19 19 19 18 18
6 5 5 5 6 6 7 7 6 8 8 6 7 7 8 10 10 8 9 9 10 11 10 9 9 9 9 17 16 16 17 19 19 19 19 19 19 19 19 19 19 19 18
6 4 4 5 5 5 6 6 6 7 7 6 7 7 7 8 8 9 8 8 9 8 10 11 9 8 8 7 12 18 17 17 19 19 18 18 19 19 19 19 19 19 19
8 6 6 5 6 6 5 6 7 9 8 7 8 7 6 6 5 7 7 7 7 7 8 8 9 9 9 8 7 15 16 15 17 18 18 18 18 19 19 20 20 20 19
7 7 6 6 6 5 6 7 8 8 9 8 7 7 8 6 5 4 7 7 7 7 7 6 7 7 8 8 6 4 10 11 13 16 17 18 19 19 19 19 20 20 19
6 6 6 6 6 6 6 7 7 8 8 9 7 7 8 6 8 7 5 6 7 7 7 6 6 6 6 6 6 5 7 9 10 11 13 15 17 18 19 19 20 20 20
5 5 5 4 5 5 5 6 7 9 9 9 8 7 7 7 8 8 7 6 6 5 5 4 5 4 4 4 3 3 2 5 7 9 9 11 13 16 18 19 20 19 19
6 5 5 4 5 4 5 5 7 9 10 10 10 8 8 8 6 6 7 6 5 4 5 5 4 2 2 1 1 2 2 3 5 6 7 7 9 11 13 15 16 16 16
9 7 7 6 6 6 6 5 6 8 8 9 11 11 8 8 7 7 7 6 6 6 6 5 4 3 2 1 4 2 3 4 4 4 5 5 6 7 9 10 10 11 11
10 10 9 9 8 7 7 6 6 7 7 8 10 11 10 8 8 8 7 7 7 6 6 7 5 5 3 3 2 2 5 8 7 7 6 6 6 6 6 6 6 6 7
13 13 13 12 11 10 9 8 7 7 7 7 7 10 10 9 8 8 8 8 7 7 4 5 4 5 4 4 5 5 8 10 11 9 9 8 8 8 8 7 7 6 5
14 14 14 13 13 12 11 10 10 9 9 8 7 9 11 11 8 8 9 8 8 7 6 4 4 5 5 5 6 6 6 6 9 11 11 11 11 11 10 10 9 9 8
14 15 14 14 14 14 13 12 12 11 11 10 9 8 9 8 11 10 8 10 9 8 8 7 6 6 6 7 8 7 6 6 8 12 13 13 12 12 12 12 12 12 11
15 15 15 15 15 15 14 14 13 12 12 11 10 10 9 8 10 9 10 10 9 9 8 7 7 6 6 7 8 7 8 7 8 10 12 13 13 13 13 13 13 13 13
16 15 16 16 16 16 16 15 14 13 12 11 11 10 10 9 8 8 8 9 9 9 9 8 7 7 7 8 7 7 6 5 6 7 8 9 13 14 14 14 14 14 14
17 16 16 16 16 15 15 16 15 15 13 13 12 11 11 11 10 7 6 7 7 8 8 9 8 7 8 9 8 7 8 7 6 5 7 7 8 8 10 12 14 15 15
16 16 16 16 17 15 14 14 14 14 13 13 12 11 11 12 12 12 10 8 7 8 8 8 9 9 10 11 9 9 9 9 5 4 6 6 6 7 7 9 13 14 14
16 16 16 16 16 16 12 12 15 14 14 13 12 11 10 10 12 11 12 12 10 9 8 7 8 9 10 12 13 13 12 10 6 8 7 7 6 8 9 10 13 13 14
14 14 14 14 14 14 13 13 13 15 15 14 13 12 11 10 10 10 10 11 11 10 10 9 9 8 8 10 13 13 11 9 9 6 5 6 7 8 9 9 12 12 13
12 12 12 12 12 12 11 13 13 13 13 14 14 14 13 12 10 9 10 11 11 10 10 10 8 6 4 6 10 11 12 11 8 6 4 6 8 9 8 9 10 11 12
11 10 10 10 11 10 10 12 13 11 12 12 12 13 12 11 9 12 11 11 11 10 9 9 9 7 8 10 15 15 14 13 10 7 6 7 11 9 7 7 9 9 10
Wind_Direction
240 237 237 239 238 233 226 228 237 239 240 239 238 237 238 237 237 237 227 203 215 223 228 229 228 226 221 215 212 213 214 214 212 210 210 212 212 208 205 204 204 202 201
249 246 240 237 240 239 240 239 240 241 243 242 241 239 238 238 236 233 235 217 215 220 225 228 227 224 221 217 213 213 215 217 215 213 211 212 212 212 209 206 205 205 204
250 247 246 241 240 240 239 242 247 246 244 242 240 240 237 237 236 232 234 234 223 212 217 222 223 222 221 220 217 215 215 217 216 213 212 211 211 211 211 209 207 206 205
258 249 245 243 242 240 238 238 241 242 242 244 243 242 238 234 234 232 231 230 232 231 213 211 217 220 221 221 219 215 213 216 216 213 211 211 211 210 210 210 210 208 207
263 253 248 248 245 242 238 241 235 238 241 240 240 234 235 233 232 232 231 233 229 231 235 203 205 215 221 222 220 217 215 216 214 212 212 213 213 211 209 210 211 210 209
273 266 256 255 254 241 235 233 240 238 244 242 249 244 232 232 230 233 235 233 232 230 231 230 212 213 215 220 219 218 217 216 213 211 212 214 215 213 211 211 212 213 212
299 282 277 266 260 252 242 234 229 232 232 230 241 243 234 230 230 232 233 238 232 230 236 231 231 235 209 208 214 217 217 215 211 210 210 212 216 214 212 213 213 213 215
322 298 287 284 267 260 251 243 233 245 240 221 236 245 239 221 213 225 224 224 234 225 224 223 227 227 245 223 202 207 217 219 215 211 209 208 212 213 212 213 213 213 215
345 336 312 294 279 268 258 249 236 236 242 229 229 245 248 241 207 189 211 219 218 224 228 225 222 223 229 240 227 199 207 215 217 216 212 209 209 208 208 209 212 213 215
347 348 338 322 307 286 269 254 240 237 238 236 220 234 260 303 275 200 187 196 206 218 233 234 231 224 228 237 231 229 196 209 218 221 219 213 210 207 207 208 211 214 215
338 346 348 339 327 308 289 271 258 241 234 238 234 218 220 225 243 266 221 185 195 205 210 223 237 240 236 238 238 217 186 207 216 222 222 218 212 208 207 210 213 214 214
316 325 325 326 317 309 300 281 263 245 242 242 245 237 223 218 218 227 235 220 211 201 202 216 228 228 235 238 228 66 157 209 215 217 221 221 215 210 208 210 213 214 214
295 297 301 301 299 295 293 289 274 260 245 240 236 237 236 235 235 229 236 229 221 202 197 203 194 202 219 235 118 58 146 198 206 208 210 211 210 206 203 205 208 211 212
289 287 274 268 271 278 279 274 275 270 257 245 239 238 239 234 230 227 232 231 220 210 199 188 150 162 149 147 76 292 115 104 136 158 170 172 178 184 189 192 196 201 205
281 275 268 262 255 254 260 264 262 268 271 258 246 237 237 237 229 226 226 232 236 225 196 169 172 146 144 108 99 91 84 82 94 105 112 118 127 135 142 153 166 178 188
279 275 269 263 257 250 244 246 253 253 258 263 262 251 237 236 229 223 222 223 230 243 234 157 157 143 132 124 104 94 92 93 81 88 95 100 105 112 117 122 124 129 137
276 271 266 263 258 252 245 239 244 245 246 249 254 257 247 240 233 223 219 218 219 223 225 187 153 144 148 141 126 115 107 101 92 83 88 91 93 97 99 102 105 104 103
276 271 265 259 256 251 245 239 239 241 240 242 241 243 252 247 236 231 222 219 217 214 221 208 174 166 157 148 134 124 110 97 96 86 86 88 89 90 91 91 90 90 90
279 273 266 259 253 250 246 240 237 236 238 239 239 236 237 242 242 232 226 220 215 207 214 212 194 166 149 145 135 123 112 107 102 105 96 91 88 89 89 90 89 88 86
280 272 265 258 252 247 244 240 235 233 233 234 235 235 233 232 238 240 234 228 223 213 204 211 198 175 158 153 149 142 130 124 115 107 93 96 99 94 92 94 95 94 91
280 273 265 258 251 245 239 235 234 231 228 229 227 227 228 226 231 237 244 236 225 218 208 206 201 185 170 165 167 160 141 127 108 127 128 129 128 119 110 105 100 99 96
282 275 267 258 252 246 233 221 229 235 228 226 226 223 220 212 218 222 236 248 246 230 218 211 206 198 186 177 169 159 151 150 142 154 135 120 121 113 107 97 99 102 101
285 277 267 257 250 247 235 211 214 231 231 227 225 222 224 209 198 213 213 220 236 243 243 238 227 214 195 183 172 170 173 171 144 152 142 121 117 103 97 97 104 104 103
284 277 267 258 250 243 223 209 207 225 231 227 223 221 224 223 208 209 213 211 214 218 223 231 239 237 220 190 180 175 159 125 112 137 142 124 125 113 108 111 107 106 106
285 278 268 257 246 237 217 202 202 224 224 225 223 219 219 220 198 194 221 221 214 211 213 227 245 257 251 193 172 158 149 145 138 153 167 135 139 127 121 122 117 110 109
288 282 270 259 245 232 208 195 201 226 222 220 218 218 213 223 187 184 220 227 222 210 200 202 215 223 214 187 172 172 168 164 148 152 177 152 152 145 133 139 144 147 133